Wind_Speed
6 5 5 6 7 8 8 2 1 2 2 2 4 3 6 11 9 9 14 10 2 3 4 10 10 12 12 12 14 12 8 4 1 2 2 7 24 29 28 30 27 27 27 24 22 20 18 17 17 17 17 17 17 16 18 18 17 15 13 12 12 13 13 14 17 18 17 17 17 17 18 18 16 14 13 14 14 13 14 14 14 14 14 15 15 15 15 15 15 15 15 15 15 15 14 16 19
6 6 7 9 9 4 3 1 1 3 1 3 5 4 10 10 7 11 10 4 2 1 7 12 14 17 18 16 14 12 10 7 5 4 6 21 28 25 28 26 24 24 25 24 22 21 19 18 17 17 17 17 17 17 18 18 17 14 12 11 11 13 13 15 17 18 18 17 17 17 17 16 14 12 13 14 13 14 14 14 14 14 14 15 14 14 14 15 14 14 14 14 14 14 14 15 17
8 9 8 8 7 3 2 1 1 3 3 5 5 6 11 7 6 5 3 3 1 3 9 13 13 11 14 14 11 9 6 5 8 7 7 20 19 19 27 23 20 21 23 23 21 21 20 19 18 17 16 17 17 17 18 17 16 13 11 10 11 13 13 15 17 18 18 18 16 16 15 14 13 12 13 13 13 14 14 14 14 14 15 15 14 14 14 14 14 13 13 13 13 12 12 14 14
10 9 8 5 2 2 1 1 3 3 4 5 4 8 10 5 5 2 7 3 1 5 7 10 10 7 14 16 9 9 7 4 8 7 5 13 17 24 27 22 20 20 22 21 20 20 19 19 18 17 16 17 18 17 18 17 15 13 11 10 11 13 13 16 17 18 18 17 15 14 14 13 13 13 13 13 13 14 14 14 14 14 14 14 14 14 13 12 12 12 11 11 11 11 12 12 11
10 8 8 4 1 1 1 1 3 4 5 5 3 10 11 4 4 2 4 2 3 5 6 8 7 8 14 11 6 6 7 7 8 10 10 16 25 27 24 21 20 20 22 20 18 19 19 19 17 17 16 17 18 17 18 16 14 12 10 9 11 14 14 16 17 18 17 16 15 14 14 13 13 13 13 14 14 15 15 14 14 13 13 13 12 12 11 10 10 10 9 9 9 10 10 10 10
8 7 8 5 2 2 0 3 4 4 6 6 5 10 11 5 2 3 3 4 4 5 9 9 10 11 10 8 6 5 8 10 9 12 16 21 27 25 22 20 20 22 23 20 16 17 20 19 17 17 17 17 17 17 17 15 13 11 9 9 12 14 14 16 16 16 15 14 14 14 14 13 12 13 13 14 14 15 15 14 13 12 12 12 11 9 8 8 8 8 7 7 8 9 9 10 14
5 5 4 3 3 2 1 4 4 5 7 8 9 11 9 5 2 2 3 3 5 6 13 10 12 14 7 6 6 8 11 14 11 15 22 25 25 22 21 20 22 24 22 19 16 16 20 19 18 18 17 17 17 17 15 13 11 10 9 10 14 15 14 15 15 15 13 13 14 14 14 13 12 13 13 14 14 14 14 13 12 11 10 9 8 7 7 7 6 5 5 6 7 7 8 13 18
7 4 1 1 2 2 2 4 5 6 7 11 12 11 6 2 2 2 2 3 2 3 13 12 15 15 7 8 6 9 17 20 20 24 27 25 23 21 20 22 24 24 21 20 17 17 20 19 18 17 17 17 16 15 13 11 10 10 10 12 15 16 14 13 14 14 13 13 13 14 14 13 12 12 13 14 14 13 13 11 10 9 9 8 7 6 7 6 4 4 4 4 6 7 11 17 19
7 4 2 1 2 3 3 4 6 8 10 13 13 15 10 3 1 2 4 5 1 3 10 12 16 14 7 12 9 6 15 23 27 27 26 22 20 21 21 22 24 24 22 20 18 19 21 19 19 17 17 16 15 13 12 12 10 10 11 13 15 15 15 13 13 13 13 13 14 14 14 13 11 11 12 12 13 11 11 9 8 8 8 7 7 7 7 7 5 4 4 4 5 9 15 18 18
4 5 2 1 2 4 5 5 7 8 11 13 14 16 10 4 4 3 2 4 4 1 10 14 16 16 10 11 7 4 13 24 28 25 24 20 19 21 22 22 23 23 22 20 19 21 21 19 18 17 16 15 14 13 13 13 11 10 10 13 14 13 14 13 13 13 13 12 13 13 12 12 11 11 11 11 11 9 9 8 7 6 6 6 7 7 6 7 6 5 4 4 5 11 17 18 17
2 4 2 1 3 4 5 5 7 8 10 11 13 12 5 6 5 4 4 3 6 1 14 16 13 15 12 7 3 8 18 23 25 23 21 18 19 22 22 22 22 21 21 20 19 22 22 19 18 17 15 14 14 14 13 12 11 10 10 13 13 12 13 13 13 13 12 11 12 12 11 10 10 10 10 10 9 8 8 7 6 5 4 5 6 6 6 6 6 5 5 5 7 12 16 17 16
3 3 2 2 3 4 6 6 8 9 10 10 11 7 6 6 5 5 3 3 5 5 11 13 10 11 11 5 3 9 19 21 23 22 18 17 19 21 21 22 21 19 20 19 20 23 22 20 19 17 15 14 14 14 12 11 10 10 10 12 13 12 13 12 12 13 12 10 11 11 10 9 9 9 8 9 8 7 8 7 5 4 3 4 5 5 5 5 5 5 5 6 7 12 16 16 14
4 3 2 3 4 4 6 7 8 9 8 8 6 3 5 6 7 4 2 5 6 5 9 15 14 11 9 4 3 7 13 18 23 21 18 18 19 20 21 21 20 19 19 18 21 23 22 21 19 17 15 14 14 12 11 11 10 10 10 13 13 12 13 12 12 13 11 10 10 10 11 9 9 8 7 7 6 5 7 6 4 3 3 4 4 3 3 4 5 5 5 6 6 12 16 16 13
4 3 3 3 4 4 5 6 7 7 7 6 1 5 5 5 6 3 0 6 5 5 11 14 15 14 9 4 4 3 8 19 23 20 18 18 18 21 21 20 19 19 19 19 22 24 22 20 18 17 15 14 14 12 12 10 10 11 12 14 13 12 13 13 14 13 11 10 9 10 10 9 8 7 6 6 4 3 4 4 3 3 3 3 3 3 2 3 4 5 5 5 6 11 16 16 13
5 2 3 3 4 5 4 6 7 7 6 3 1 3 5 4 5 4 3 5 3 9 11 7 8 11 9 9 6 5 12 22 21 19 19 19 19 21 22 20 19 20 21 22 24 24 21 19 17 16 15 14 14 13 12 11 10 12 13 14 12 12 13 14 15 13 11 11 9 9 9 8 7 6 5 5 3 2 1 1 4 3 2 2 2 2 2 2 3 4 5 5 5 10 15 15 12
5 2 2 3 4 5 5 6 7 7 6 3 1 2 5 1 3 2 2 5 8 8 9 3 1 7 11 10 11 14 20 24 21 19 20 20 21 22 22 20 21 23 23 24 25 24 21 18 16 17 15 14 14 13 12 12 12 13 14 13 12 13 14 15 15 13 11 10 9 8 8 7 6 6 4 4 4 3 1 1 4 5 3 2 1 1 1 1 1 3 4 4 4 10 15 14 12
4 3 2 4 4 6 6 5 5 4 4 2 4 2 4 1 3 2 2 15 13 10 12 9 7 9 11 12 20 25 25 25 23 21 20 21 22 22 21 20 22 24 26 25 25 25 20 16 17 18 16 15 15 14 13 13 13 13 13 12 13 14 14 15 15 13 11 10 9 9 9 8 7 6 4 3 4 4 3 2 5 7 6 4 2 1 1 1 0 2 4 4 5 10 15 14 12
3 3 4 5 5 8 7 4 5 1 2 5 6 2 2 1 5 4 4 16 15 12 12 13 15 13 15 20 27 28 25 25 23 20 18 19 19 18 18 19 19 21 25 23 21 25 20 16 19 20 17 16 16 15 14 14 14 13 12 12 14 15 14 14 14 13 12 11 8 9 10 9 7 5 4 3 3 4 4 4 5 7 7 5 4 2 1 1 1 1 3 4 6 11 15 14 11
4 3 4 5 7 8 7 7 6 3 4 5 7 4 3 3 6 4 6 14 15 14 11 13 18 15 17 21 25 24 23 24 21 18 17 16 15 15 15 15 18 22 24 21 20 26 23 19 21 21 18 17 16 14 14 15 16 14 13 13 14 15 14 14 14 13 12 9 7 9 12 10 8 6 5 3 2 4 5 5 6 8 8 6 5 3 3 2 2 1 1 5 9 14 16 14 11
4 3 4 6 8 10 10 11 6 3 5 6 7 7 5 3 2 3 7 12 15 15 11 12 14 14 15 15 18 20 20 19 17 17 16 15 14 12 13 15 20 21 20 21 24 28 25 23 23 20 19 19 18 15 14 16 18 16 15 14 13 15 14 14 13 11 10 7 6 10 13 12 10 8 8 6 4 3 3 6 8 10 10 9 7 5 5 3 3 3 2 6 14 17 16 14 12
4 5 7 7 8 8 11 13 7 2 4 4 5 8 7 5 2 1 4 8 9 11 13 16 15 15 16 13 14 15 15 13 12 14 14 14 16 15 19 19 17 17 20 21 21 24 24 24 24 22 22 23 21 18 16 19 19 17 15 14 13 14 13 13 13 11 10 8 7 10 12 11 10 9 9 9 8 4 4 6 9 12 13 11 8 7 6 5 4 5 4 9 16 17 15 14 10
3 6 10 10 8 8 11 13 8 4 5 1 3 6 6 5 3 3 4 3 6 10 13 17 16 15 15 13 12 12 10 8 8 10 10 16 20 21 25 23 18 18 22 21 18 20 23 25 25 24 24 23 20 18 18 19 19 17 15 15 14 14 13 14 14 13 13 12 11 11 12 11 10 10 10 10 10 8 5 5 8 13 15 13 11 8 7 6 5 6 7 10 14 16 14 11 7
4 5 8 10 9 9 12 10 5 6 7 4 3 4 6 7 5 5 9 5 9 15 16 17 14 14 15 14 12 10 8 7 7 8 12 20 23 23 25 24 20 20 23 22 20 20 21 24 25 23 23 21 18 17 16 18 18 16 16 16 15 14 13 14 15 15 15 14 13 13 13 12 10 9 11 11 11 10 9 7 7 11 16 15 13 10 9 8 7 8 10 10 12 13 11 9 8
7 6 7 8 8 10 12 6 5 7 6 5 6 6 5 7 5 8 12 10 15 16 16 18 14 14 15 13 11 9 8 8 8 12 19 23 25 24 22 19 18 19 23 23 21 20 19 22 22 22 22 18 17 17 15 15 15 15 15 15 14 13 12 14 14 14 15 15 14 14 14 12 9 8 10 12 14 13 12 12 8 9 14 16 15 13 11 10 8 9 12 13 13 12 11 10 11
7 7 8 8 7 9 9 5 1 5 3 4 7 8 5 7 5 8 12 13 18 15 15 17 15 14 13 12 10 9 8 8 10 17 23 24 26 24 19 17 16 16 19 21 20 18 17 18 19 21 21 17 16 18 16 14 13 14 15 14 13 13 12 12 13 12 14 15 15 16 14 12 10 9 10 12 15 15 14 14 12 10 12 14 15 15 14 12 11 12 14 15 15 14 13 13 14
7 8 8 7 8 10 8 6 4 7 3 4 6 6 5 8 6 5 12 14 16 16 16 15 15 14 12 11 10 8 8 8 11 18 22 23 24 21 16 15 16 15 16 17 18 17 15 16 17 19 20 17 16 17 16 15 12 13 14 14 14 13 12 12 12 11 11 14 16 17 15 13 11 10 11 12 13 15 15 16 15 13 13 14 16 17 16 15 14 15 16 16 16 16 15 14 14
7 9 10 9 10 9 6 5 4 5 4 3 5 5 5 8 5 4 11 14 15 16 15 13 14 12 11 10 8 8 8 9 15 21 22 19 19 18 14 14 15 16 16 16 16 16 14 15 16 17 18 16 15 15 15 14 13 13 13 13 13 13 13 13 12 11 9 11 15 17 16 15 13 12 12 13 12 14 17 18 17 18 18 16 18 17 16 18 18 17 19 19 17 17 17 16 15
7 8 7 9 10 9 7 5 5 2 2 3 4 6 7 7 4 7 14 15 16 17 15 13 13 11 11 10 8 8 7 12 19 20 17 15 15 16 16 16 16 15 15 15 14 15 15 15 15 16 16 16 15 15 15 14 13 13 13 12 12 13 14 12 11 11 9 8 11 14 15 15 14 14 14 14 13 13 17 19 18 20 21 19 19 18 17 21 22 20 20 20 19 19 20 18 16
8 7 5 7 8 8 8 6 5 3 2 6 5 6 7 6 5 12 17 15 17 18 16 14 13 10 10 9 8 7 8 15 19 18 17 17 15 14 16 16 15 14 14 14 13 15 16 15 15 14 15 16 16 15 14 13 13 13 12 12 12 12 12 12 10 9 10 9 10 12 12 12 13 13 13 13 14 14 16 19 20 21 23 22 21 20 19 22 23 21 21 21 19 20 20 18 17
6 6 4 5 4 5 6 6 6 6 5 8 7 4 5 7 7 13 16 16 18 17 15 14 11 10 9 7 8 8 10 14 17 18 19 18 15 14 15 15 14 14 14 13 13 14 15 15 14 13 14 15 15 14 13 13 13 11 12 12 12 11 11 11 10 9 10 10 10 10 9 10 11 12 12 12 14 15 15 18 21 22 22 23 22 21 22 22 21 21 21 20 19 20 20 17 17
4 5 4 3 3 4 6 7 6 6 6 8 7 4 5 8 8 11 14 16 19 16 15 14 11 9 8 8 11 12 11 14 18 20 18 15 15 16 16 15 15 14 13 13 13 13 13 12 11 12 13 14 13 13 12 13 12 11 12 12 11 10 10 11 11 10 10 8 8 8 9 10 12 12 13 13 15 15 15 17 18 20 21 22 23 22 23 23 21 21 21 19 18 20 21 18 16
3 3 4 3 4 4 5 8 9 7 6 8 8 5 5 7 10 9 10 13 18 16 15 16 13 12 10 10 13 12 10 14 18 18 16 15 15 16 17 17 16 15 13 12 13 14 13 10 10 12 13 13 13 12 12 12 13 12 11 12 12 9 9 10 10 9 8 7 7 8 9 10 12 13 13 14 16 16 16 17 17 17 18 21 23 23 23 24 23 23 22 20 19 20 19 18 16
3 4 4 3 5 4 5 7 10 10 7 6 8 5 3 7 11 9 9 11 18 16 15 16 14 12 11 11 11 10 9 11 14 15 15 16 14 14 17 19 17 16 15 13 14 14 13 12 10 11 11 10 10 10 11 12 12 12 11 12 13 11 8 7 6 7 8 8 8 9 9 10 12 13 13 14 15 16 16 17 17 16 15 17 21 23 23 23 23 23 22 21 21 19 18 14 12
3 3 5 4 4 5 5 6 9 12 9 7 8 7 5 7 8 8 11 13 18 16 14 15 12 12 12 11 10 9 9 8 9 12 14 15 16 15 16 18 18 17 16 15 14 14 13 13 11 11 10 9 9 8 9 9 10 11 11 12 12 11 9 7 5 6 7 9 10 10 10 11 13 14 14 14 14 16 16 16 17 17 15 14 16 19 21 21 22 23 22 22 21 21 20 14 8
4 4 4 5 5 6 8 6 8 13 12 8 8 10 10 8 5 8 11 14 19 15 13 12 12 14 12 12 11 9 10 7 9 12 13 14 17 18 15 15 18 17 15 14 13 14 15 14 12 12 10 9 9 7 7 7 7 8 9 10 11 9 9 9 8 9 9 10 10 10 11 11 12 14 15 15 15 16 17 17 17 17 17 15 13 15 18 20 21 23 23 22 22 21 19 18 12
9 8 7 7 6 7 10 7 11 15 11 9 9 10 10 7 2 8 8 13 18 14 12 11 11 12 10 10 10 9 10 8 10 14 14 13 13 15 15 16 19 18 18 17 16 16 16 15 13 12 10 8 8 8 7 7 7 6 6 8 8 8 9 9 8 9 8 9 9 9 11 12 13 14 14 14 15 16 16 17 17 16 17 16 15 15 16 19 21 24 23 21 22 19 16 18 18
13 9 7 10 9 8 11 7 14 15 9 9 11 10 8 5 3 6 6 11 16 16 14 11 10 10 9 11 11 11 11 9 13 16 14 14 14 16 19 20 21 20 20 19 18 17 16 15 13 12 10 8 8 8 7 7 6 6 5 5 5 6 8 8 8 8 7 8 9 10 12 12 12 13 14 14 15 16 15 17 17 17 18 18 18 17 16 17 20 23 24 22 21 19 15 17 18
13 8 5 7 7 9 13 9 17 16 9 9 9 9 9 6 4 6 11 12 12 14 15 12 12 12 10 12 12 12 10 9 13 15 16 18 19 22 23 21 20 19 19 18 18 17 15 14 14 12 10 9 9 9 7 6 6 6 5 5 4 4 5 7 9 9 8 9 10 11 12 12 12 13 13 14 15 16 16 17 18 19 18 18 18 18 17 17 21 24 23 22 21 19 17 16 16
10 7 5 6 5 8 11 8 18 15 7 7 9 9 8 6 10 14 16 15 10 12 14 13 13 12 11 11 12 11 11 10 11 12 14 18 20 22 23 21 20 19 19 18 17 16 15 14 13 12 10 9 8 8 7 5 4 4 3 3 3 3 4 5 6 7 8 8 9 10 11 11 12 13 13 15 16 16 16 17 18 19 18 18 18 18 18 18 20 23 23 22 20 18 17 16 18
7 6 5 5 7 8 7 7 19 15 6 8 11 7 4 8 14 16 16 16 14 15 15 13 11 10 11 11 10 10 11 11 11 10 11 14 17 20 21 19 18 20 20 18 16 15 14 13 13 13 11 10 9 7 7 5 4 4 3 2 2 2 3 3 4 6 7 7 6 8 10 10 11 12 13 14 16 16 16 17 17 18 18 18 18 18 19 19 20 22 23 23 20 18 19 19 19
8 8 7 6 9 10 7 7 16 13 6 7 9 6 3 7 14 13 12 15 15 13 15 14 12 11 12 12 11 10 11 10 11 10 9 11 15 17 17 17 18 20 19 17 16 15 14 13 13 13 12 11 9 8 7 5 5 4 4 4 2 2 1 3 5 7 7 8 8 8 9 9 9 11 13 14 15 16 16 16 16 17 18 18 18 19 20 19 20 22 22 23 23 21 21 21 20
8 9 10 12 13 11 7 6 10 6 4 4 9 7 1 4 14 13 9 13 14 11 14 13 11 11 12 11 10 11 11 9 10 10 9 11 14 14 16 18 18 18 16 16 16 16 16 15 14 15 15 14 12 10 8 7 6 6 6 6 5 6 4 2 4 5 7 8 9 8 8 7 8 10 11 13 15 15 15 15 15 16 17 17 18 19 21 21 21 22 23 24 25 25 23 20 20
7 7 10 14 14 12 9 4 4 4 5 5 8 8 2 2 10 12 11 14 14 11 12 11 10 9 10 9 9 10 10 8 8 9 9 10 12 13 15 17 17 16 16 16 18 18 18 17 16 17 16 15 14 13 12 10 10 10 9 9 8 8 7 6 6 5 6 6 6 7 8 8 8 8 8 10 12 14 15 15 16 16 17 18 18 19 22 24 24 24 24 24 25 26 24 21 21
6 6 10 13 12 11 9 5 4 6 6 5 8 10 4 2 6 11 15 16 13 10 10 10 9 9 10 9 9 11 10 8 7 8 8 10 12 13 14 15 16 17 17 18 19 19 19 17 16 15 15 14 14 13 13 13 14 13 13 13 12 10 8 8 7 5 5 5 5 6 6 7 8 7 7 10 11 13 14 16 16 16 17 18 18 20 21 23 25 25 25 25 25 26 26 25 24
5 6 10 10 8 9 7 5 5 4 6 4 7 10 5 3 4 8 13 14 11 11 11 10 10 10 10 10 10 11 9 7 7 7 8 10 12 14 14 15 17 18 18 18 18 18 18 18 17 15 15 16 14 13 13 14 15 15 16 17 16 15 13 11 9 6 6 5 5 6 6 7 7 8 9 11 12 13 14 15 16 17 18 18 18 20 22 22 23 25 25 26 27 28 29 28 26
5 8 10 7 6 6 3 4 4 2 5 5 6 10 5 2 5 7 8 10 10 10 10 10 10 10 10 10 10 9 8 7 7 8 9 12 14 15 16 17 18 17 17 17 17 17 17 17 17 16 17 17 16 14 14 14 14 15 17 18 18 18 17 15 14 12 10 9 8 8 7 8 8 9 10 12 13 14 15 15 16 17 18 19 19 20 22 22 23 23 25 26 27 28 29 29 28
7 9 9 6 7 4 1 3 1 3 3 6 9 11 7 3 6 7 5 8 15 15 11 11 12 12 10 8 8 7 7 6 6 7 9 13 15 17 17 17 16 16 16 15 15 16 16 16 15 16 17 17 17 16 16 16 16 15 17 18 18 18 17 17 17 16 16 14 12 10 10 10 11 11 12 14 14 14 15 17 16 16 17 19 20 21 22 22 21 22 23 25 27 29 29 28 28
8 8 6 4 5 2 1 1 2 3 4 6 9 10 7 4 4 3 1 8 14 15 15 15 15 14 11 7 7 7 6 7 6 6 7 10 13 15 15 15 15 15 15 14 14 13 14 14 14 15 16 16 16 17 17 17 17 16 16 17 17 17 16 17 17 17 17 17 16 15 12 12 13 14 14 14 14 14 15 16 17 16 17 18 19 20 21 21 20 22 23 24 26 30 30 27 27
7 6 5 5 3 2 3 3 2 3 4 6 9 8 3 3 1 3 5 12 11 9 12 15 15 15 13 9 8 7 6 7 6 5 6 7 9 12 13 14 14 12 12 12 12 11 12 12 13 14 14 14 16 17 18 18 18 18 18 18 17 16 16 15 16 17 18 18 18 17 16 15 15 16 16 15 14 14 13 14 16 17 19 19 19 19 19 19 20 22 23 23 25 28 30 29 29
7 6 5 6 3 3 4 3 2 1 4 7 9 7 2 2 3 6 7 11 11 11 12 13 14 13 12 9 8 7 7 7 6 6 6 5 9 12 12 11 10 8 8 9 10 10 10 11 11 11 13 15 16 17 18 19 19 19 19 18 17 16 16 16 16 17 18 18 18 18 18 16 15 17 17 17 16 15 14 14 15 16 17 19 20 19 18 17 19 22 22 23 25 27 28 29 29
6 6 5 4 4 5 3 3 3 2 4 4 6 4 2 2 3 6 9 11 11 13 12 12 12 10 9 8 8 8 7 7 6 6 6 6 9 11 8 8 7 7 7 8 9 9 9 10 10 10 13 16 17 18 18 18 18 18 18 18 17 17 17 17 17 18 18 18 19 19 19 19 18 17 18 19 18 16 17 16 15 16 16 18 20 20 19 18 19 21 20 21 24 26 26 26 27
4 5 5 5 4 5 4 4 6 4 2 1 2 2 1 3 6 8 10 11 11 13 13 13 11 8 8 8 7 7 7 6 6 5 5 7 8 8 7 6 5 5 7 8 9 10 9 10 11 12 16 18 18 19 19 19 19 18 17 17 18 18 17 17 18 18 18 18 19 20 20 20 19 18 18 20 20 19 18 18 18 17 17 18 20 21 20 19 20 21 20 20 23 24 24 24 25
4 4 6 6 5 5 4 4 4 5 3 1 1 3 4 4 4 7 10 11 11 11 12 12 10 8 8 7 7 7 7 6 6 5 5 6 6 7 8 6 5 6 7 7 8 11 13 14 15 17 20 20 20 20 20 20 20 19 19 18 17 18 18 18 18 17 18 19 20 21 21 20 20 20 20 21 21 21 20 19 18 18 18 19 19 20 19 18 19 21 21 21 22 23 24 23 22
4 6 6 4 5 4 4 3 2 4 3 2 2 5 6 4 2 6 11 11 10 11 12 12 10 8 7 8 8 8 8 7 7 6 5 6 7 7 6 8 11 12 11 10 11 15 18 19 19 20 21 20 20 21 21 21 20 19 19 19 18 18 18 17 17 16 17 19 20 22 22 21 22 22 22 22 22 22 22 20 18 19 19 19 19 19 18 16 17 19 20 21 22 22 22 23 23
5 6 6 5 5 6 3 4 3 5 4 2 3 5 5 3 3 8 11 12 12 12 12 12 12 10 8 8 9 9 8 7 6 4 4 6 6 5 7 11 13 13 14 15 16 17 19 19 19 20 20 20 20 20 20 20 20 20 18 18 19 19 18 18 18 17 18 18 20 21 22 23 24 23 23 23 24 24 24 22 20 20 19 18 18 17 17 16 15 16 18 21 23 22 22 24 25
7 4 6 6 5 4 3 3 4 5 4 3 5 4 3 1 4 11 12 12 13 12 11 12 12 11 9 9 9 8 7 5 5 4 3 4 5 7 11 13 12 13 16 16 16 17 18 19 20 20 20 19 18 19 20 20 20 20 18 18 21 20 18 19 20 19 20 20 20 21 21 22 23 24 24 24 24 25 25 23 22 21 19 17 17 16 16 18 18 17 17 19 22 22 21 23 24
5 4 6 5 3 3 3 2 2 5 3 4 5 2 2 0 2 10 14 13 13 13 11 10 11 11 10 9 8 7 6 5 5 4 2 4 6 11 14 13 12 14 15 16 18 18 17 18 20 20 19 19 16 16 19 20 20 21 19 19 23 22 20 20 22 21 21 22 22 21 21 21 21 22 23 24 24 24 24 24 23 23 21 19 18 17 16 18 20 20 19 19 21 21 21 22 22
5 4 5 5 4 5 5 3 2 4 3 4 5 3 1 1 2 5 12 13 12 13 12 10 10 11 10 9 8 6 5 5 5 3 3 6 9 12 13 12 14 15 15 18 20 19 19 20 19 18 19 20 19 16 17 20 22 23 22 22 24 24 23 23 25 24 24 24 24 23 23 22 22 22 21 22 24 23 24 24 24 24 23 22 21 20 19 19 20 22 21 21 21 21 22 22 22
Wind_Direction
270 284 314 327 317 325 316 263 127 289 170 227 244 249 257 241 245 264 273 283 355 323 35 69 71 83 95 102 103 84 52 37 304 148 151 124 115 121 129 132 139 144 146 146 146 145 150 156 157 158 158 159 158 154 150 149 151 152 149 136 122 121 117 108 110 110 105 104 106 107 108 106 104 100 100 101 101 101 99 100 102 103 105 106 106 106 107 107 106 105 105 104 104 104 105 111 114
253 272 302 309 297 303 300 205 129 280 223 247 244 230 249 257 263 259 268 317 41 116 65 67 81 93 105 111 102 80 54 36 58 81 102 111 112 119 128 131 136 141 144 143 143 143 147 153 156 156 156 157 156 152 151 153 154 153 148 132 123 123 117 110 111 111 107 106 108 109 107 103 102 102 106 107 105 104 101 102 103 104 105 105 106 107 106 105 105 105 106 106 105 107 110 114 115
256 270 291 302 279 225 294 302 186 246 239 241 252 245 249 274 278 256 105 99 315 83 81 69 73 92 101 88 72 81 88 54 73 79 99 108 109 124 129 129 129 136 142 140 141 143 146 150 154 152 149 151 152 152 153 155 155 154 146 130 126 127 119 113 113 113 111 110 109 107 104 102 103 104 108 106 104 104 103 103 103 105 105 104 105 103 102 102 104 105 105 106 106 110 115 116 116
266 270 280 302 290 198 292 268 194 218 231 238 255 260 259 270 245 147 96 138 348 63 91 80 63 61 84 89 92 96 111 113 104 107 96 104 119 131 129 125 123 129 137 138 139 142 145 148 150 147 144 147 150 153 154 156 154 153 146 129 129 132 122 116 116 116 114 113 110 108 105 104 104 105 108 106 105 106 104 104 102 103 102 101 100 98 100 101 101 104 106 107 110 116 118 114 114
276 271 265 268 291 232 205 229 216 210 227 236 242 262 263 264 240 145 82 51 61 81 101 103 92 65 70 89 113 107 130 138 121 111 99 111 126 130 126 124 123 126 133 137 139 139 142 146 147 143 142 147 150 153 154 155 152 152 146 132 133 134 124 119 120 118 114 112 112 112 107 104 105 106 108 108 109 109 107 106 103 102 102 101 100 102 104 102 102 105 109 113 119 120 112 106 109
284 285 265 236 250 293 239 249 240 235 234 231 238 258 263 277 277 114 67 38 32 55 83 94 106 93 73 69 64 92 145 131 109 110 113 121 128 127 124 123 123 128 135 139 137 137 142 145 145 141 141 147 150 152 154 153 152 153 146 135 137 134 124 121 120 117 113 111 114 116 111 106 106 106 108 111 111 110 109 106 103 102 102 105 108 106 100 96 97 101 106 115 123 115 101 106 116
278 303 278 207 258 285 209 251 248 258 248 238 242 255 275 297 276 91 40 41 9 34 88 100 105 97 81 82 56 55 100 115 111 118 126 129 130 127 124 123 125 133 141 142 137 136 143 144 142 141 142 145 148 151 152 152 155 155 147 139 140 135 125 121 119 119 117 116 120 124 119 111 110 109 111 114 114 112 111 108 105 102 98 104 110 106 101 95 92 98 107 116 117 106 104 120 127
254 269 275 156 255 245 203 253 248 253 255 255 258 261 278 17 332 1 33 45 358 66 106 111 101 88 61 80 76 54 81 107 116 122 130 131 131 130 130 129 130 137 142 143 139 137 142 143 141 142 142 142 145 147 145 146 149 146 143 142 141 137 130 123 122 127 125 124 129 130 124 118 116 113 114 116 116 113 113 112 108 106 101 101 105 101 105 104 107 115 116 121 110 104 120 132 136
246 228 258 221 221 253 236 247 243 244 248 253 260 264 261 195 192 37 27 4 352 153 124 120 100 98 88 79 85 68 81 106 118 124 129 130 134 135 136 136 135 136 139 141 140 139 142 142 140 139 138 140 142 139 136 135 134 131 136 143 142 141 138 131 129 133 131 133 136 133 127 124 121 115 116 117 115 113 112 110 107 110 106 99 96 96 101 102 107 108 105 114 106 119 134 139 141
232 211 227 239 215 260 254 246 245 245 245 245 246 249 251 184 150 95 32 330 304 306 112 108 98 109 113 87 89 95 101 113 119 125 130 134 138 137 137 138 140 140 140 138 137 140 139 140 140 138 137 138 137 134 134 134 134 133 135 145 147 144 143 137 136 141 138 138 140 135 130 127 121 116 115 114 111 108 106 104 106 108 97 91 93 97 99 94 95 90 93 101 108 133 143 143 142
234 224 187 253 254 252 250 254 255 255 254 255 251 236 190 136 135 126 150 236 282 253 108 99 98 109 102 89 101 113 116 118 119 126 133 135 133 134 136 136 144 147 141 135 136 140 138 139 141 139 138 135 134 134 137 138 140 138 135 147 150 142 139 139 142 147 142 138 139 136 135 129 120 116 115 116 112 106 103 101 105 101 91 92 97 104 100 90 87 79 76 86 115 142 149 146 146
233 256 161 213 231 237 249 257 263 268 264 254 255 232 154 130 106 98 131 232 250 191 126 110 122 113 94 102 129 114 114 117 123 130 132 131 129 132 137 136 141 144 139 135 135 139 136 136 137 135 136 132 134 138 140 142 142 141 137 145 146 140 141 145 146 145 140 137 136 133 135 130 124 120 119 122 116 104 97 100 108 97 95 97 98 106 97 85 75 67 62 75 117 147 153 151 150
214 247 171 222 223 231 251 259 267 275 277 254 240 168 132 99 83 80 37 283 255 196 134 125 134 111 96 116 119 113 113 121 127 132 134 132 131 130 134 134 134 136 136 134 132 135 132 131 131 127 129 132 137 140 143 146 145 145 143 144 143 145 149 150 147 142 140 139 132 128 130 131 133 129 123 122 118 106 92 98 117 104 101 99 98 101 87 79 67 59 53 66 118 151 156 156 151
210 234 198 243 253 246 253 262 271 273 282 275 289 93 107 90 101 110 357 280 278 131 114 120 125 100 105 139 115 137 132 130 130 134 137 134 133 129 132 134 130 129 130 130 128 127 125 126 127 127 134 141 145 147 148 148 148 150 148 148 149 151 152 152 148 143 141 139 132 127 127 132 139 135 130 128 125 125 98 100 131 123 111 103 93 91 82 73 65 56 47 61 119 155 160 156 149
212 242 226 256 268 270 266 262 270 274 276 257 334 58 83 84 118 127 229 267 3 98 102 112 119 102 142 164 146 174 145 136 137 136 136 134 132 129 132 133 128 126 125 126 123 120 121 125 129 136 146 151 153 154 151 149 152 155 155 155 155 152 153 154 151 149 145 142 138 133 135 143 147 141 140 150 156 168 135 124 164 162 131 119 97 83 77 64 66 55 49 58 112 159 163 156 149
211 229 249 263 259 267 257 259 275 277 266 210 259 75 94 83 125 132 218 90 57 76 86 75 94 125 155 158 143 148 142 140 142 139 135 131 127 128 131 130 128 127 125 124 120 118 120 126 135 144 153 158 158 158 157 156 158 160 160 158 156 152 152 154 155 155 151 147 146 148 157 161 162 159 156 172 189 201 216 209 185 185 180 166 143 97 70 43 58 48 53 61 106 157 163 157 152
219 214 241 264 257 258 247 254 273 270 275 313 345 51 109 237 153 177 91 86 76 62 65 58 64 110 131 134 136 138 141 142 142 141 135 129 124 126 129 131 131 127 125 122 119 121 125 134 147 154 160 162 159 158 161 162 160 160 161 159 156 151 148 153 157 158 154 150 150 160 170 175 183 187 190 200 218 224 225 229 196 196 197 187 200 192 80 21 351 38 55 71 112 154 162 158 151
223 195 216 247 240 248 246 254 264 284 354 345 347 6 84 229 172 178 107 93 89 71 63 68 72 84 102 117 128 133 138 138 142 141 132 129 128 128 132 137 128 110 106 100 105 124 139 152 157 162 162 157 154 154 159 161 158 158 161 162 159 154 150 154 155 153 151 151 153 155 158 173 189 191 199 203 216 224 233 232 201 202 209 207 214 219 245 248 216 21 56 87 123 152 157 152 141
219 190 205 231 236 254 266 278 289 16 20 351 341 337 1 255 192 170 125 109 102 90 78 81 85 89 97 110 121 127 133 137 144 140 135 137 135 134 133 126 99 87 94 98 115 137 155 167 164 168 161 152 154 155 159 158 155 157 160 162 162 160 159 158 153 146 146 151 157 151 148 161 173 169 180 176 168 202 218 219 205 205 214 223 227 234 249 241 206 190 91 112 134 145 146 139 126
216 195 222 235 238 261 274 279 295 55 46 20 343 329 342 306 191 163 154 127 114 117 114 103 104 108 109 113 121 126 131 142 148 141 145 140 126 115 105 98 89 96 118 130 141 150 161 167 166 169 160 156 159 158 161 158 156 157 159 161 161 164 164 157 149 143 143 149 154 159 161 166 173 170 171 166 166 210 220 205 203 207 213 222 229 240 250 250 216 193 159 141 143 145 142 133 119
209 196 231 250 248 265 277 287 304 65 67 45 341 337 328 317 354 320 174 142 123 132 134 127 128 126 123 123 124 127 133 145 144 142 149 126 114 104 95 105 117 135 141 135 145 153 160 164 165 168 165 167 166 160 161 159 158 157 157 159 156 162 166 155 148 149 157 167 170 178 180 181 187 183 172 169 177 207 248 222 206 204 210 216 222 236 249 258 233 206 181 158 153 153 150 144 133
222 217 229 249 260 280 284 292 315 46 59 36 351 359 326 321 337 17 73 132 133 129 130 129 133 132 128 127 125 128 130 137 133 139 131 105 108 106 104 120 144 154 135 125 146 161 166 167 168 170 170 172 168 162 162 160 159 158 159 158 155 161 165 160 159 164 174 182 183 191 199 205 209 199 182 178 186 194 213 239 222 207 207 210 217 227 242 256 247 226 205 174 165 165 164 169 183
217 244 236 241 245 262 273 289 337 53 48 341 340 6 336 338 332 61 70 84 120 126 129 124 126 124 122 122 124 128 125 127 127 115 100 100 106 110 118 132 151 149 130 134 157 166 169 170 172 175 174 172 168 166 165 163 164 163 163 162 161 164 167 170 172 174 183 188 189 197 207 218 224 209 193 191 196 197 199 215 235 222 212 207 211 219 233 245 249 243 228 203 189 188 193 203 230
200 241 250 248 240 244 255 289 16 50 35 323 318 334 323 314 320 78 83 94 110 119 122 120 121 119 117 117 121 127 125 126 122 99 92 102 111 117 125 139 153 143 133 144 156 159 164 167 172 177 178 174 167 171 170 166 170 171 169 167 168 172 174 177 180 183 193 196 196 205 210 219 226 211 204 204 200 201 203 207 222 229 219 213 210 213 222 234 246 250 242 230 219 222 228 241 255
208 226 252 263 264 259 257 267 79 84 33 299 293 304 294 277 294 91 104 110 112 115 113 115 117 115 116 119 120 122 123 120 113 99 93 103 113 117 123 137 147 141 142 150 148 150 155 159 168 176 179 175 167 174 177 172 175 179 177 176 178 185 187 187 188 193 203 204 203 209 211 217 223 213 210 210 205 206 206 212 218 213 214 217 216 216 214 221 236 246 248 241 237 243 246 260 262
210 216 237 250 264 270 269 262 195 140 151 236 251 274 283 279 298 95 122 121 116 114 111 113 114 116 116 118 121 119 119 114 106 94 91 101 110 113 121 131 133 131 144 151 150 151 150 153 162 172 175 172 167 171 178 180 178 180 182 187 191 196 200 202 202 201 206 207 206 210 212 216 221 217 215 214 214 217 215 219 221 212 208 207 213 220 213 214 229 244 249 247 249 253 251 263 259
224 221 227 233 249 263 275 280 240 152 139 212 233 243 255 263 275 113 130 128 120 117 116 118 114 116 115 112 116 113 111 107 102 95 91 97 104 110 120 125 123 122 130 141 152 152 148 152 155 165 172 171 167 165 174 182 180 182 187 192 197 204 207 208 211 209 206 202 202 207 213 220 222 219 219 214 215 225 226 227 224 218 217 207 206 214 213 214 224 239 244 243 249 254 258 266 257
264 249 239 236 240 256 269 271 247 154 117 218 238 251 247 247 227 150 141 138 132 128 124 119 112 113 112 108 107 105 103 96 94 96 98 101 106 115 122 125 124 120 122 129 144 149 151 158 155 162 172 172 170 167 170 175 176 183 187 191 196 203 206 206 208 207 205 199 197 204 213 221 226 224 221 216 216 227 233 231 225 219 219 215 210 209 211 216 221 231 234 235 242 247 258 264 252
281 281 274 252 242 253 255 252 230 160 167 207 214 258 254 245 213 153 146 149 141 133 127 121 117 117 116 113 109 100 94 88 83 86 95 101 106 115 120 125 127 121 121 121 130 142 150 158 158 159 165 167 171 171 171 171 170 175 179 184 189 192 196 197 198 197 197 196 193 201 211 217 224 227 228 229 229 235 235 228 224 222 219 216 214 212 216 219 221 229 230 231 240 246 255 259 249
281 278 267 251 252 256 238 242 228 171 182 200 190 247 256 249 221 158 155 155 139 132 128 124 122 122 121 115 103 88 81 81 79 78 84 97 111 117 116 119 119 115 117 120 126 137 144 151 154 155 157 159 166 170 169 167 166 165 167 172 178 183 188 188 195 200 196 191 185 195 208 214 217 221 228 233 231 234 231 222 223 226 222 218 217 217 221 225 224 228 228 226 235 247 254 257 248
283 281 273 224 212 253 224 217 212 170 193 202 182 226 250 249 227 171 165 155 138 135 130 125 125 123 120 107 94 84 77 76 82 89 95 102 109 111 110 108 107 105 109 115 117 124 131 138 147 152 151 151 157 163 162 160 159 157 159 164 168 183 197 194 198 210 208 197 190 194 200 205 209 213 222 227 227 230 227 221 222 223 222 221 222 222 222 228 229 225 223 221 227 241 250 252 247
232 245 269 231 202 264 254 212 194 175 213 198 175 221 254 246 229 182 169 153 135 133 130 128 130 127 119 103 94 90 84 79 81 89 98 100 96 96 100 101 102 103 105 109 106 105 106 110 132 146 148 150 152 155 156 155 152 151 152 157 164 182 211 206 198 211 217 209 209 206 200 203 208 212 222 227 226 230 227 221 217 218 223 225 225 224 223 228 231 225 221 219 225 236 245 247 247
224 194 223 227 196 228 267 226 191 184 215 196 178 221 245 230 230 181 161 146 129 131 131 130 132 125 113 100 96 97 90 81 76 69 73 90 96 92 96 97 97 100 104 110 109 106 105 103 109 124 135 140 140 142 146 150 150 152 153 157 165 182 219 228 205 213 218 215 220 219 213 212 212 214 224 232 231 232 231 223 217 220 227 226 223 223 224 229 231 228 224 219 222 232 238 238 236
259 210 207 234 208 198 229 227 189 185 207 205 190 220 232 239 241 176 160 139 127 134 132 127 122 109 104 101 99 97 93 88 87 80 81 101 107 97 94 96 96 99 102 106 109 107 113 115 109 112 119 120 123 129 138 147 149 155 162 166 172 188 221 242 230 229 230 223 223 224 222 218 214 214 222 234 237 236 236 230 223 224 225 224 225 224 225 229 230 230 227 220 220 227 234 236 224
231 216 194 237 243 218 224 216 176 183 203 210 196 216 236 264 262 166 155 130 128 135 122 111 106 105 109 108 107 103 97 87 85 91 98 111 110 101 100 100 99 101 99 101 107 106 109 114 114 116 118 119 126 131 140 155 159 161 168 174 180 197 221 233 234 235 236 233 229 228 229 228 224 220 220 228 233 235 239 237 231 227 225 226 230 229 225 227 229 230 228 222 220 225 234 239 233
225 213 182 209 235 240 240 214 171 179 195 209 201 208 226 266 245 146 130 116 126 126 106 97 100 107 109 103 103 99 94 89 94 101 106 108 104 99 99 97 95 96 95 97 104 107 108 109 109 108 109 115 124 129 137 152 166 175 180 184 190 204 220 233 238 233 230 235 238 235 234 238 236 228 224 224 228 233 237 239 237 231 231 232 233 232 227 227 231 230 226 222 222 226 232 236 234
236 227 192 204 215 236 252 220 173 175 181 209 208 196 206 230 176 142 97 100 123 123 106 99 101 103 100 97 98 96 95 95 94 95 95 91 85 84 85 84 86 87 88 92 96 101 104 104 101 98 102 112 117 116 121 133 150 162 169 180 185 199 214 228 239 239 236 239 244 243 241 239 235 230 230 228 228 233 236 237 236 232 233 235 236 238 236 237 237 232 226 222 226 229 228 230 230
242 249 237 224 214 224 247 214 172 175 176 201 196 176 195 200 142 92 69 82 117 122 109 105 104 99 96 97 99 98 95 86 78 73 72 73 72 76 78 75 76 76 78 85 91 94 97 97 96 97 100 104 107 105 105 115 131 140 147 159 166 189 209 216 229 239 243 241 241 244 241 234 232 233 235 234 233 238 241 239 237 233 231 234 239 241 242 242 238 233 226 224 229 228 222 219 211
241 252 255 255 245 233 249 202 171 179 178 183 179 173 191 155 93 73 73 79 87 88 90 100 104 103 102 100 100 99 92 82 75 69 67 69 70 74 76 72 70 71 73 78 84 89 91 93 94 96 92 84 88 93 93 93 106 125 133 146 158 169 185 201 221 235 244 245 243 246 246 240 237 238 236 236 238 241 245 245 244 242 237 235 238 239 241 242 238 236 231 228 229 224 219 213 205
239 238 235 253 254 245 260 185 170 179 173 167 173 168 156 115 86 74 78 82 77 72 75 77 79 89 95 92 90 89 90 87 81 75 67 67 68 69 72 72 70 70 69 68 74 80 85 93 95 93 88 78 73 75 79 77 82 96 91 91 126 148 168 197 220 232 244 253 252 250 254 252 244 241 241 240 241 241 244 248 250 250 248 245 243 240 240 241 239 237 236 234 231 222 217 216 215
240 233 227 244 249 247 252 175 164 175 183 162 147 115 95 114 95 85 86 84 82 79 79 75 69 75 78 80 80 76 81 86 85 82 72 68 68 67 70 70 68 68 67 65 68 72 76 84 89 88 86 79 69 65 64 59 64 72 61 58 54 21 311 216 216 224 237 250 261 265 265 262 254 249 248 247 247 247 246 251 255 253 253 253 249 244 241 241 241 238 237 238 235 228 221 220 220
244 235 228 238 247 257 254 168 145 156 212 183 128 111 260 128 103 101 98 88 86 81 84 83 78 80 81 80 80 76 75 76 81 82 78 74 71 69 67 65 64 65 65 64 65 67 70 73 76 77 75 71 66 63 61 54 48 45 32 25 15 3 358 276 240 247 247 250 265 275 271 268 268 261 252 250 253 254 252 254 258 256 255 254 251 246 242 240 240 239 237 238 238 234 228 225 222
238 228 224 238 246 261 271 228 159 159 206 199 139 128 210 170 110 112 107 95 95 90 88 88 82 82 85 85 84 85 83 77 80 81 80 78 73 68 63 61 61 58 57 59 63 64 64 65 67 67 63 60 60 58 59 58 48 42 31 18 6 357 345 318 304 293 268 257 265 275 275 278 281 272 262 261 258 256 256 257 259 259 257 256 252 246 241 237 236 237 238 238 238 236 228 225 224
228 226 227 236 238 248 269 277 234 181 183 184 139 127 136 181 139 127 117 107 107 105 97 94 91 88 87 87 88 90 91 88 87 85 82 81 76 72 66 60 58 54 53 57 62 62 59 58 57 58 54 48 48 50 52 53 48 44 38 31 27 19 2 337 321 303 279 268 260 260 267 276 277 269 264 270 269 261 258 258 258 258 258 259 255 249 246 241 237 235 236 236 235 231 226 225 227
216 234 241 236 229 239 251 277 271 176 164 185 140 129 133 172 158 136 123 117 123 124 117 110 102 97 93 92 92 92 93 90 88 89 86 83 79 75 69 62 56 52 52 55 59 58 59 57 52 52 50 42 41 44 45 46 45 43 39 36 32 27 24 15 1 344 326 311 288 270 261 261 261 256 253 257 262 261 258 258 258 257 258 258 256 255 255 251 246 242 238 236 233 229 228 227 228
200 233 257 258 240 241 223 238 281 91 152 206 171 143 136 166 165 155 139 132 139 133 124 122 114 109 105 100 99 96 93 90 85 86 84 83 82 76 68 61 54 50 49 54 57 55 57 58 53 53 52 47 46 45 44 42 40 38 36 35 31 25 23 22 19 15 7 356 330 306 296 289 278 270 264 256 255 257 257 257 257 258 259 258 257 259 258 255 253 250 248 245 239 234 231 228 228
175 219 256 273 258 253 144 212 245 75 196 223 197 166 138 145 183 184 184 157 151 143 135 134 125 119 115 108 107 102 97 95 85 81 83 81 79 73 66 60 55 51 47 49 53 51 53 53 52 56 53 51 51 48 47 44 40 41 37 34 31 25 20 19 19 16 13 9 354 334 320 311 306 300 290 278 269 265 262 259 261 267 268 265 263 260 257 256 257 257 256 252 246 240 234 230 229
175 206 225 241 280 304 71 283 82 127 234 241 212 189 140 122 203 233 97 123 139 143 142 140 133 127 124 115 110 109 101 96 88 81 77 72 71 68 63 58 52 49 46 47 48 47 49 49 52 57 54 51 52 50 49 48 45 46 42 36 32 25 20 19 16 11 9 6 359 351 342 331 327 324 314 305 294 283 274 266 267 274 277 275 271 265 259 257 259 260 255 249 245 243 239 235 232
188 199 186 177 266 267 203 239 172 177 233 230 204 191 135 95 325 329 94 113 120 127 130 133 132 128 126 121 113 109 102 96 93 85 75 67 67 62 55 52 49 46 49 49 47 46 44 42 46 55 55 53 55 52 50 51 51 50 46 40 34 27 23 19 13 7 4 360 356 356 351 341 338 336 330 325 319 308 292 278 275 279 280 278 275 271 267 261 259 256 253 251 248 244 240 234 231
196 196 166 153 176 199 212 216 172 214 251 212 178 154 138 118 29 13 77 107 110 112 114 118 120 121 121 119 112 104 99 97 91 87 83 73 71 67 56 51 49 43 53 60 54 47 42 36 35 47 57 57 58 55 49 49 51 48 42 37 32 28 24 20 12 5 1 358 356 356 352 343 337 340 340 335 331 324 313 300 292 291 290 284 278 273 268 265 266 262 257 255 252 248 243 237 233
198 195 167 164 173 170 194 175 144 228 248 193 146 136 187 159 85 50 68 86 96 104 108 108 109 114 117 116 114 108 101 96 91 89 86 79 82 90 88 75 64 50 56 67 57 44 39 33 30 45 59 59 57 52 47 48 49 44 38 33 30 27 22 19 14 7 1 359 360 359 355 348 339 338 342 343 339 331 323 315 307 301 299 294 285 276 267 261 266 270 268 261 256 254 250 245 241
197 177 174 208 198 142 152 174 147 147 181 95 72 77 75 101 95 86 86 90 97 103 107 109 109 114 119 115 113 108 98 93 94 88 82 79 83 100 108 98 92 72 62 67 58 46 37 31 41 58 60 57 53 50 50 51 48 42 37 33 31 28 23 20 13 4 360 1 3 1 357 354 348 342 342 344 343 337 328 320 311 304 299 296 290 281 272 266 265 268 268 265 263 260 255 251 248
182 174 195 218 206 136 128 183 145 104 111 248 254 109 105 103 95 104 107 103 109 113 113 115 116 115 116 111 105 101 97 94 88 81 80 77 70 82 93 84 68 61 61 73 60 44 41 43 55 65 60 54 50 49 52 50 44 41 38 34 31 29 27 23 16 7 4 4 3 2 360 357 356 353 350 347 343 340 336 327 315 306 299 296 296 291 283 277 275 272 268 266 267 269 267 263 256
171 184 203 211 218 198 128 140 154 119 140 207 179 145 143 150 148 139 136 130 131 131 124 122 120 115 110 106 103 98 97 92 82 76 72 67 64 74 89 73 62 61 65 70 56 45 49 53 58 62 58 53 52 51 50 47 43 42 40 37 33 30 27 25 19 12 10 7 4 5 5 2 360 358 356 354 348 340 337 333 324 317 307 299 302 303 296 287 280 276 275 274 273 274 274 271 263
209 183 184 164 192 222 170 141 166 157 157 126 119 151 161 161 160 158 154 150 147 141 135 132 126 125 120 109 105 98 95 93 88 86 70 70 71 64 74 71 64 65 67 63 56 51 52 51 52 56 53 52 55 52 48 46 45 41 41 42 38 32 30 29 24 19 17 13 6 5 5 4 3 1 359 358 355 347 340 335 328 324 317 306 306 310 307 298 283 271 271 274 274 274 274 272 268
245 208 189 176 168 188 174 164 169 156 154 132 129 161 203 185 158 165 163 156 150 145 141 137 132 132 127 114 109 103 100 102 99 96 84 93 94 70 69 68 62 64 65 62 58 55 54 50 49 51 51 51 54 52 47 49 47 41 43 45 37 31 32 32 27 24 24 20 14 9 6 4 2 2 1 358 357 356 352 347 339 331 321 312 309 311 310 306 297 285 277 275 274 273 274 275 273
233 216 194 192 168 155 174 209 173 145 140 134 137 184 234 61 151 166 159 152 150 145 138 134 130 125 116 107 109 109 108 108 103 97 85 91 93 81 75 69 62 67 70 67 61 55 54 54 50 49 48 43 44 49 50 49 45 42 44 43 34 28 29 29 23 23 26 23 18 15 11 8 6 4 2 358 356 359 358 357 356 350 340 329 319 310 308 308 306 303 294 286 282 277 273 273 272
200 206 190 177 149 141 169 243 228 148 138 139 144 158 166 12 324 169 153 148 148 141 133 126 116 109 104 102 107 108 108 113 115 112 87 73 77 82 83 73 62 60 63 65 61 53 51 51 48 48 45 37 35 44 48 46 44 43 42 39 32 27 27 28 25 25 27 23 20 19 15 13 11 8 5 1 358 359 358 357 1 3 358 351 342 330 321 314 309 307 302 297 292 284 278 274 270
Height
778 779 778 779 778 779 780 780 796 794 794 808 798 795 782 758 756 755 751 744 745 740 728 728 727 729 741 758 767 769 772 775 779 781 789 778 765 769 768 770 773 774 777 779 782 784 786 789 791 793 795 798 800 802 804 806 808 808 809 810 810 811 811 812 813 814 815 815 816 817 818 818 819 820 821 821 822 822 823 823 824 825 825 826 826 826 826 826 826 826 826 826 826 827 827 827 827
778 779 777 780 778 782 783 779 801 801 799 812 797 789 773 754 758 758 752 748 746 736 726 729 732 736 742 749 754 763 773 770 766 767 769 766 768 771 769 771 773 775 778 779 782 784 787 790 793 795 797 800 802 804 806 808 809 810 811 812 812 813 813 814 814 815 816 817 818 818 819 820 821 822 822 823 823 824 824 825 826 826 827 827 828 828 828 828 828 828 828 828 828 828 828 828 829
778 778 777 780 779 782 784 784 803 806 807 812 796 778 763 760 761 753 747 743 738 728 728 732 738 743 745 754 757 767 778 769 763 763 765 766 769 772 772 772 774 776 778 781 783 785 789 792 795 797 799 802 804 806 808 809 811 812 813 814 814 815 815 816 816 817 817 819 819 820 821 822 823 824 824 825 825 826 826 827 828 828 829 829 830 830 830 830 830 830 830 829 829 829 829 829 830
777 778 778 780 782 784 788 793 798 802 809 805 793 772 758 763 756 747 740 735 730 726 732 736 745 744 744 763 763 767 776 770 765 764 766 767 769 773 773 773 775 777 779 782 784 787 790 794 797 799 802 804 806 808 809 811 812 814 814 815 816 816 817 817 818 818 819 820 821 822 823 824 825 825 826 827 827 828 828 829 830 830 831 831 831 832 832 832 832 832 832 831 831 830 831 831 831
777 778 779 781 788 787 788 794 791 797 803 794 788 770 755 757 750 745 736 731 728 727 733 737 751 746 744 758 760 769 774 768 765 762 767 770 770 773 773 775 776 778 781 783 786 789 792 796 799 801 804 806 807 809 811 813 814 815 816 817 817 818 818 819 820 820 821 822 823 824 825 826 826 827 828 828 829 829 830 831 832 832 833 833 834 834 834 834 834 834 834 833 832 832 832 832 832
777 778 777 780 784 781 789 798 794 795 787 779 780 764 752 750 745 742 735 731 727 726 731 737 748 749 755 757 754 764 764 765 766 764 767 771 772 773 775 776 778 780 782 784 788 791 795 798 801 804 806 808 809 811 813 814 815 816 817 818 818 819 820 820 821 822 823 823 824 825 826 827 828 828 829 830 831 831 832 832 833 834 835 835 835 836 836 836 836 836 836 835 834 834 834 833 833
778 780 779 782 783 780 795 802 797 794 777 768 768 758 751 746 740 738 736 736 732 729 732 740 741 750 766 760 759 762 757 761 763 765 768 770 773 774 776 778 780 782 784 786 789 793 797 800 802 806 807 809 811 813 814 815 817 817 818 819 819 820 821 822 823 824 824 825 826 826 827 828 829 830 831 831 832 833 833 834 835 835 836 837 837 838 838 838 838 838 837 836 836 835 835 835 835
779 783 780 786 792 787 796 798 793 788 773 761 756 751 749 742 738 738 739 740 740 737 738 743 737 756 773 761 770 768 758 763 762 767 769 771 774 775 778 779 781 783 786 788 791 795 798 802 804 807 809 811 813 814 816 816 817 818 819 820 820 822 822 823 824 825 825 826 827 828 828 829 831 831 832 833 834 834 835 835 836 837 837 838 838 839 839 840 840 839 839 838 837 837 836 836 836
778 783 782 788 795 793 795 795 788 779 768 759 752 747 743 738 735 737 740 741 741 738 741 743 738 761 776 766 776 770 762 767 765 769 770 774 776 777 780 779 782 784 788 790 793 797 800 804 806 809 811 812 814 815 816 817 818 819 820 820 821 822 823 825 825 826 826 827 828 829 830 831 832 833 834 834 835 836 836 837 837 838 838 839 839 839 840 840 841 841 840 840 839 839 838 838 837
779 781 783 788 794 798 799 793 783 772 762 754 748 742 739 736 734 735 739 741 739 739 741 739 741 760 772 774 778 771 768 768 766 771 772 775 777 778 781 781 783 785 789 792 795 799 801 805 807 810 812 813 815 816 817 818 819 819 820 821 822 823 824 826 826 827 828 828 829 830 831 832 833 834 836 836 837 838 838 839 839 839 840 840 840 841 841 841 842 842 842 841 841 840 840 839 839
784 778 779 790 797 802 799 791 780 769 758 749 743 735 733 732 733 737 738 741 737 741 743 741 753 761 768 777 777 771 769 768 769 772 773 776 778 780 781 782 785 786 790 794 797 800 803 806 808 811 812 814 815 816 818 818 819 819 820 821 822 823 825 826 827 828 829 830 831 832 833 834 835 836 837 838 838 839 840 840 840 841 841 841 841 842 842 842 842 842 843 842 842 842 842 841 841
787 781 781 795 799 797 791 786 778 767 757 750 743 731 727 727 732 738 739 744 738 741 743 743 755 758 771 782 775 770 768 770 770 772 775 777 779 781 782 784 786 789 792 795 799 802 805 808 810 812 813 815 816 817 817 818 819 819 820 821 822 823 825 826 827 829 830 831 832 833 834 835 836 837 838 839 840 840 841 841 842 842 842 842 843 843 843 843 843 843 844 843 844 843 843 843 842
783 782 785 793 789 787 785 781 774 767 761 750 740 728 724 728 734 737 738 743 739 743 743 739 745 751 773 782 773 771 770 770 771 773 776 777 780 781 783 785 788 791 794 797 800 804 807 810 812 813 814 815 815 816 816 817 818 819 820 821 822 823 825 826 828 830 831 832 833 834 835 836 837 838 839 839 840 841 842 843 843 843 843 843 843 844 844 844 844 844 844 844 844 844 844 844 844
777 776 783 789 782 781 780 778 771 769 765 746 734 726 724 729 731 732 737 745 741 741 742 735 737 752 774 780 777 776 770 770 771 774 776 778 781 781 784 787 789 793 796 799 803 807 809 811 813 814 814 815 815 815 816 817 817 819 820 820 822 823 825 827 828 830 831 832 834 834 836 836 837 838 839 840 840 841 842 843 843 844 844 844 844 845 845 845 845 844 844 845 845 845 845 845 845
771 772 778 786 784 781 777 774 769 768 763 743 733 727 727 727 726 732 736 745 745 735 737 737 734 750 770 775 778 774 768 770 771 775 777 779 782 783 786 788 791 794 798 802 805 809 811 813 813 813 813 813 813 814 815 816 817 818 819 820 822 823 825 827 828 830 831 833 834 834 835 836 837 838 839 839 840 841 842 843 843 844 844 844 845 845 846 846 846 845 845 845 845 846 846 846 846
765 769 778 785 785 784 776 769 767 768 759 741 732 728 733 731 724 733 732 737 748 738 738 744 736 743 759 762 766 766 766 770 771 775 777 780 782 784 787 789 794 797 801 805 808 812 813 814 813 812 812 811 812 812 813 814 816 817 818 820 821 823 825 827 829 830 831 833 833 834 834 835 837 838 838 839 839 840 840 842 843 843 844 844 845 845 845 846 846 846 845 845 845 846 846 847 847
762 770 783 788 787 783 772 766 766 765 755 741 734 731 739 739 729 729 727 733 748 747 742 744 738 740 750 754 758 761 766 769 772 775 777 780 782 785 789 791 796 799 803 808 811 814 813 812 810 809 808 809 810 810 812 813 815 817 818 820 821 823 825 827 828 830 831 832 833 833 833 834 835 837 838 839 839 839 840 841 842 843 843 844 844 845 845 846 846 846 845 845 845 846 847 847 847
766 775 784 789 786 776 764 762 758 753 751 745 737 734 738 742 736 727 731 743 749 752 750 746 745 745 749 753 758 762 767 770 772 775 778 781 783 786 789 793 797 801 805 810 814 814 811 807 805 806 806 808 809 810 811 812 815 817 818 819 821 823 825 827 828 830 831 831 832 832 833 834 835 836 837 838 838 839 839 840 841 842 843 844 844 845 845 846 846 846 846 845 845 846 847 848 848
768 774 781 783 775 764 755 755 751 746 749 745 737 735 737 740 735 727 739 754 752 757 761 754 756 757 756 758 761 765 768 771 773 776 778 781 784 786 790 795 800 803 806 809 811 809 806 804 803 805 807 808 810 811 812 813 815 815 817 819 821 824 824 826 828 830 831 831 832 831 832 833 834 835 836 837 837 838 839 840 841 842 843 844 845 845 846 846 846 846 846 846 846 846 847 848 848
765 770 780 774 763 758 753 751 748 743 741 743 741 736 737 736 731 730 740 753 754 759 763 761 766 765 764 763 763 767 769 772 774 776 779 782 785 789 792 797 801 803 804 805 805 804 803 804 806 808 809 810 810 811 811 812 813 813 815 818 822 823 824 826 829 831 832 832 833 832 832 833 833 834 835 836 836 837 838 839 840 841 843 844 845 845 846 846 846 847 846 846 846 847 847 848 848
763 767 774 765 758 760 754 749 746 741 737 741 743 741 742 736 731 733 738 750 758 758 755 757 764 764 764 765 765 767 770 773 775 777 779 782 787 791 793 796 799 800 802 804 805 806 806 806 807 809 809 809 808 808 809 811 812 813 816 819 822 823 825 827 830 832 832 833 833 832 833 833 834 834 834 835 835 837 838 839 839 840 841 842 844 845 846 847 847 847 847 847 847 847 847 847 847
763 763 763 758 758 761 753 746 744 740 739 740 743 747 744 736 734 736 740 750 756 753 750 751 756 758 760 763 765 768 771 774 776 777 780 784 788 792 793 795 797 799 803 806 807 807 806 807 808 808 809 809 810 810 811 812 813 815 818 820 822 823 825 828 830 831 832 832 832 832 832 833 834 834 834 834 834 836 837 838 838 839 840 841 842 844 845 846 847 848 848 847 847 847 847 846 846
764 763 756 754 755 757 750 745 744 740 743 745 745 746 741 741 743 739 743 750 746 744 745 749 753 755 758 762 766 770 774 776 776 778 782 786 789 791 793 794 795 799 803 805 805 805 806 807 809 810 810 811 813 813 814 816 817 818 819 821 822 823 825 827 830 831 831 832 832 831 831 831 832 833 833 834 834 834 836 837 838 838 838 839 841 842 844 845 846 847 848 848 847 847 846 846 846
761 763 755 752 751 751 747 743 744 742 745 746 743 745 744 747 748 744 749 749 744 744 743 747 753 755 760 764 769 772 774 776 777 780 784 786 789 791 792 792 794 798 802 803 804 805 806 808 809 810 811 813 814 815 816 818 820 821 821 822 823 824 825 827 829 830 831 832 831 830 830 830 830 831 831 832 832 833 834 835 836 837 837 838 839 841 842 844 845 846 847 847 846 846 846 846 846
758 760 754 751 749 747 743 742 744 743 745 745 744 750 750 745 744 749 754 749 744 745 745 748 753 758 763 767 770 773 774 776 778 782 786 788 789 791 792 792 794 797 800 802 804 806 807 808 809 811 812 813 814 815 816 818 820 822 822 823 824 825 826 827 829 830 830 831 831 830 830 830 829 829 829 829 830 831 833 834 835 836 837 837 838 839 840 842 843 844 846 846 846 845 845 845 845
754 753 751 750 749 745 743 742 744 744 744 746 750 754 750 742 743 754 755 749 746 745 749 752 755 761 765 768 771 773 775 777 780 784 787 790 790 791 792 794 795 797 799 801 804 806 807 809 810 811 812 813 814 815 816 818 820 821 822 823 824 825 825 827 828 829 830 830 830 830 830 829 829 828 828 828 829 830 832 834 835 836 836 836 837 838 838 840 841 843 845 845 845 845 844 844 844
747 748 748 748 748 744 743 744 743 744 744 746 752 755 751 742 748 762 757 747 746 748 753 756 758 764 765 769 771 773 776 778 781 784 787 790 791 793 794 796 797 799 799 801 803 805 807 809 810 811 812 813 813 815 817 818 819 820 821 822 823 823 824 826 827 828 829 829 829 830 829 828 828 828 828 828 829 830 832 833 835 835 835 835 836 837 838 838 839 841 843 844 845 844 844 843 844
745 746 748 747 747 745 744 745 744 745 747 745 749 753 751 746 751 760 755 747 747 751 756 758 761 765 766 770 772 774 777 779 782 784 788 791 793 794 796 797 798 800 801 802 804 805 807 809 810 811 812 813 814 815 817 818 819 819 820 821 821 822 823 825 826 827 828 828 828 828 828 827 827 828 828 828 828 830 831 832 833 834 834 834 835 836 836 837 837 839 840 842 843 844 843 843 843
745 746 753 752 748 750 746 746 745 746 750 744 747 759 759 754 752 751 748 747 747 750 756 759 763 767 768 771 774 777 779 781 784 787 790 794 796 797 797 799 800 801 803 804 805 806 808 810 811 812 813 815 815 816 817 818 819 819 820 820 821 821 822 824 825 826 826 827 827 827 827 826 826 827 827 828 828 829 830 831 832 832 833 834 835 835 835 835 835 836 838 840 841 842 842 842 842
747 747 754 756 757 758 748 745 745 746 749 740 750 772 770 756 749 746 745 746 747 751 756 760 764 768 771 773 776 780 782 784 787 791 794 797 800 800 799 800 801 802 804 806 807 808 809 811 812 813 814 815 816 817 817 818 819 819 820 820 821 821 822 823 824 824 825 826 826 826 826 826 826 827 827 828 829 829 830 830 831 832 833 833 834 834 834 834 834 834 836 837 839 840 841 841 841
751 753 756 758 767 765 748 744 747 749 748 737 752 775 770 755 746 743 744 743 747 753 756 761 766 770 773 775 779 784 786 787 791 794 796 799 801 801 801 801 802 804 805 807 808 809 811 812 813 814 815 816 816 817 817 818 819 820 820 821 821 821 821 822 823 823 824 824 825 826 827 827 828 828 829 830 830 830 830 830 831 831 832 832 833 833 833 833 833 833 834 835 837 838 839 839 839
753 763 768 762 766 765 750 744 745 750 747 738 753 771 767 755 743 737 739 741 746 753 758 761 766 770 773 776 782 787 789 790 793 795 797 799 801 801 801 802 803 805 806 808 809 810 812 812 813 814 815 817 817 818 818 819 820 820 821 822 822 822 819 820 823 823 823 824 824 826 827 828 829 829 829 830 830 830 829 830 830 830 831 831 832 832 832 832 832 833 833 834 835 836 837 837 838
756 764 773 766 765 767 758 747 741 744 747 744 752 764 764 754 740 735 736 739 747 754 759 762 766 770 774 779 785 789 791 793 795 798 799 799 800 803 803 803 804 806 807 809 810 811 812 813 814 815 816 817 818 819 819 820 821 821 821 822 823 822 818 819 822 823 823 824 824 825 826 827 828 828 828 829 829 828 828 828 829 829 829 830 830 830 830 831 831 832 832 833 834 834 835 836 837
765 762 767 764 762 765 763 753 742 740 748 751 751 756 759 750 741 738 736 740 749 756 760 763 767 773 777 782 787 789 791 795 796 799 800 800 800 802 804 805 805 806 809 810 811 812 813 814 815 816 817 818 818 819 819 820 821 821 822 822 823 822 820 819 821 822 822 823 823 823 824 825 826 826 827 827 827 827 827 827 827 827 828 828 829 829 828 829 830 831 831 832 833 833 833 834 835
769 766 767 765 761 761 759 754 744 741 749 753 754 756 755 748 743 740 737 741 750 757 762 767 771 776 779 782 786 789 792 796 798 799 801 801 800 800 803 807 807 808 810 810 812 813 814 815 816 817 817 818 818 819 819 820 820 821 821 822 822 822 821 821 821 822 822 822 822 822 822 823 824 824 825 825 825 825 825 825 825 826 827 827 827 827 827 827 828 829 830 831 831 831 832 833 833
761 760 761 764 763 759 751 746 740 739 750 755 755 757 754 751 748 741 739 743 752 759 766 773 776 778 780 783 787 791 794 797 799 801 802 803 803 802 804 808 808 809 811 812 813 814 815 816 816 817 818 818 819 819 819 820 820 820 821 821 822 822 821 821 821 822 822 821 821 821 821 822 822 823 823 823 823 823 823 823 824 825 826 826 827 826 826 826 826 827 829 830 830 830 831 831 832
751 753 755 756 758 757 745 739 736 734 749 755 751 753 753 753 750 743 741 748 756 763 772 779 781 782 784 787 791 792 795 797 798 801 803 805 806 805 806 808 809 811 812 813 814 815 816 816 817 818 818 819 819 819 819 819 819 820 820 821 821 821 821 821 820 820 820 820 820 820 821 821 821 822 822 822 822 822 822 822 822 823 824 824 825 825 826 826 826 826 828 829 830 830 830 829 830
749 752 756 754 754 751 739 736 735 731 744 752 748 752 755 752 752 750 749 756 763 767 775 783 784 786 788 790 793 794 796 798 799 802 804 806 806 806 808 809 811 813 813 815 816 816 817 817 818 818 818 819 819 819 819 819 819 819 819 820 820 820 820 820 819 818 818 819 820 820 820 821 821 821 821 821 821 821 821 821 820 820 821 822 823 824 825 825 825 826 827 828 829 829 829 828 829
750 752 757 759 752 744 735 732 733 731 740 750 748 753 756 753 758 762 760 765 772 773 777 784 786 788 792 793 795 797 799 801 802 804 807 807 808 808 809 811 813 814 815 816 817 817 818 818 818 819 819 819 819 819 819 819 819 819 819 819 819 819 819 819 818 817 817 819 819 819 819 819 819 819 819 819 819 820 820 820 820 820 820 820 821 822 823 824 825 826 827 828 828 828 828 829 829
751 752 758 759 750 745 743 736 733 731 736 742 745 752 757 759 768 773 770 772 779 782 783 786 789 791 794 795 797 800 802 804 806 807 809 809 810 810 811 814 815 815 816 817 818 818 818 819 819 819 819 819 819 819 819 819 819 819 819 819 819 819 819 819 818 818 818 818 819 819 818 818 818 817 817 817 817 818 818 819 819 820 820 820 821 821 821 822 823 825 826 827 827 827 827 828 828
750 749 753 753 745 742 739 734 733 733 735 736 743 762 766 764 777 784 779 779 783 787 788 791 795 795 796 799 800 803 804 806 808 809 811 811 812 813 815 816 817 816 818 819 819 819 818 819 819 819 819 820 820 820 819 819 819 819 818 818 819 818 818 818 818 818 818 818 818 818 818 817 817 817 816 816 816 817 817 817 818 818 819 820 820 820 820 820 821 822 824 825 826 826 826 826 827
752 744 742 742 740 738 734 732 738 749 752 740 743 775 784 769 777 789 785 785 790 792 793 797 801 800 801 804 805 806 807 808 809 810 813 813 814 816 817 817 818 819 820 820 820 819 819 819 819 820 820 820 820 819 819 819 818 818 818 818 818 818 818 818 818 818 818 818 818 817 817 817 817 816 815 815 815 815 816 816 817 817 817 817 818 818 818 818 817 818 819 821 823 824 825 825 824
755 741 732 733 735 738 737 736 745 759 760 742 737 770 791 778 780 791 788 791 798 797 799 802 804 805 805 807 808 808 810 811 812 813 814 815 816 817 818 819 820 820 821 821 820 820 820 820 820 820 820 820 820 819 819 818 818 817 817 818 818 818 818 817 817 818 817 817 817 817 817 816 816 815 815 815 815 815 815 816 816 816 816 815 814 814 814 813 813 813 814 815 818 820 822 823 822
749 732 725 730 732 735 738 738 745 748 745 742 739 756 783 787 786 791 788 795 804 802 805 806 805 807 807 809 810 810 813 814 814 815 815 816 817 818 819 820 821 821 821 821 821 821 821 821 821 820 821 820 820 820 819 819 818 818 818 818 818 819 818 817 817 817 817 817 817 816 816 816 815 815 815 815 815 815 815 815 815 815 815 814 813 812 812 811 811 809 809 810 812 815 817 819 820
737 724 722 725 727 730 734 738 741 737 739 753 751 752 779 792 788 788 787 795 807 806 806 807 806 808 808 810 812 811 813 814 815 816 816 817 818 819 820 821 822 822 822 822 822 822 823 822 822 822 821 821 821 820 820 820 819 819 819 819 819 819 818 818 817 817 817 816 816 816 815 815 814 815 815 815 814 814 814 813 813 813 813 813 812 812 811 812 812 811 809 808 808 809 812 815 816
726 721 721 720 722 726 730 737 739 740 749 759 754 752 776 795 791 790 791 795 805 807 806 807 807 809 810 811 812 813 814 815 815 816 817 818 819 820 821 821 823 823 823 823 823 823 824 823 823 823 822 822 821 821 821 820 820 820 820 819 819 819 818 818 817 817 816 816 815 815 815 814 814 814 814 814 813 812 812 812 812 812 812 812 811 810 810 810 811 811 810 808 807 807 807 810 812
720 723 726 726 726 726 731 736 736 752 764 756 748 746 763 788 789 782 782 783 791 800 805 808 808 810 812 813 813 814 815 816 817 817 818 819 820 820 822 822 824 825 825 824 824 824 824 824 824 823 823 823 822 822 821 821 820 820 820 820 820 819 819 818 817 817 817 816 815 815 814 814 813 813 813 812 812 811 811 811 811 811 811 811 810 809 809 809 809 810 809 809 808 806 805 806 809
719 725 731 739 740 735 742 745 744 767 774 754 743 738 747 779 789 780 777 776 783 792 798 804 808 811 813 814 814 815 815 817 818 819 820 820 821 821 822 824 825 826 826 825 825 825 824 824 824 824 823 823 822 822 822 821 821 821 821 821 821 821 820 819 818 818 818 816 816 815 814 814 813 812 812 811 810 810 810 810 810 810 809 809 808 807 807 808 808 808 807 807 806 805 805 805 806
721 727 736 752 758 756 761 762 761 771 766 748 740 737 754 786 794 787 784 783 788 792 795 801 806 810 813 814 815 815 816 817 819 820 821 822 822 823 823 825 826 826 826 826 826 825 825 824 824 823 823 823 823 822 822 822 822 822 822 822 822 821 820 820 819 818 818 817 816 815 814 813 812 811 810 810 809 808 808 808 808 808 807 807 806 806 805 805 805 804 804 804 804 804 804 803 803
725 730 738 756 765 771 777 772 769 770 760 745 734 740 773 799 797 793 791 788 792 794 798 802 806 810 814 815 816 816 817 818 820 821 822 823 823 823 825 826 827 827 826 826 826 825 825 824 824 824 823 823 823 822 822 822 822 822 822 822 822 821 820 820 820 819 818 817 817 816 815 814 812 811 810 809 808 807 807 806 806 806 805 804 804 803 803 803 802 801 801 802 802 802 802 802 801
723 721 728 746 752 761 773 771 769 771 760 748 741 753 786 802 799 799 796 794 796 797 801 805 808 812 814 815 817 817 819 819 821 822 822 824 824 825 827 828 827 827 826 826 826 825 825 824 824 824 824 824 823 822 822 822 822 822 822 822 822 821 821 820 819 819 818 817 816 815 814 813 812 811 809 808 807 806 805 805 804 804 803 802 802 801 801 801 799 798 799 799 799 800 800 800 800
721 714 725 740 735 738 754 754 754 761 763 767 775 785 796 799 800 800 798 800 802 802 805 807 811 814 814 817 818 818 820 821 822 823 823 824 825 826 827 827 827 826 826 827 826 826 826 825 825 824 824 824 823 822 822 822 822 822 822 822 822 821 821 820 819 819 818 817 816 815 814 813 811 810 809 807 806 805 804 803 802 802 801 800 799 798 798 799 798 797 797 798 797 797 798 798 798
720 720 729 729 718 725 743 749 749 755 769 787 798 801 801 801 804 802 802 807 808 806 809 810 812 815 815 817 818 818 821 822 823 824 824 825 826 827 827 827 827 826 826 827 826 827 827 825 825 825 824 824 823 823 823 822 823 822 822 822 822 822 821 821 820 819 818 817 815 814 813 812 811 809 808 806 805 804 803 802 801 800 799 798 797 797 796 797 797 796 796 796 795 794 794 794 795
718 725 723 717 717 722 734 750 759 761 774 793 799 799 801 803 806 806 804 808 810 809 810 811 813 816 817 817 818 820 821 822 824 825 825 826 826 827 827 827 827 827 826 827 827 827 827 826 826 825 824 824 824 824 823 823 823 822 823 822 822 822 821 821 821 820 818 816 815 814 813 811 810 809 807 806 805 803 802 801 800 799 797 796 796 795 795 795 795 795 795 794 793 792 791 790 791
709 714 709 717 735 738 736 748 762 767 776 793 802 800 798 798 801 805 806 807 809 809 810 812 814 816 817 818 819 821 822 823 825 826 826 826 827 827 828 828 827 827 827 828 828 827 827 826 826 825 825 824 824 824 824 824 823 823 823 823 822 822 821 821 820 819 818 816 815 814 812 811 810 808 807 806 804 803 802 800 799 797 796 795 794 794 793 792 791 791 791 791 791 791 790 788 788
705 708 707 713 727 734 735 739 749 760 770 786 801 803 797 794 795 799 803 804 806 808 810 810 812 814 815 817 820 822 823 824 825 826 826 826 827 828 828 828 828 828 828 828 828 828 827 827 826 825 825 825 825 825 824 824 824 823 823 823 822 822 821 820 819 818 817 816 815 814 812 811 809 808 807 806 805 803 801 800 798 797 795 793 793 792 792 790 789 788 788 788 788 789 788 787 787
715 719 719 718 719 722 729 733 735 746 760 778 796 801 796 792 789 791 795 799 802 806 808 810 810 812 814 817 821 823 824 824 824 825 826 827 828 828 829 829 829 829 829 829 828 828 828 827 826 825 825 825 825 825 824 824 823 823 823 822 822 821 820 819 818 817 816 816 815 814 813 811 809 808 807 806 805 804 802 800 798 796 794 793 792 791 791 790 788 787 786 786 786 786 786 785 785
714 719 718 719 720 725 739 745 736 733 746 766 783 793 796 793 788 787 789 794 799 802 805 810 812 814 817 820 822 823 824 824 824 825 826 827 828 829 830 830 830 830 829 829 829 829 828 827 826 826 826 826 826 825 825 824 824 823 823 823 822 821 820 819 818 817 816 816 815 814 812 811 809 808 807 806 805 803 802 800 797 796 794 792 791 790 789 788 787 786 785 784 784 783 783 782 782